| time (UTC) | temp F | wind direction | speed MPH | gust MPH | rain 1hr in | rain 24hr in | rain mn in | humidity % | barometer mb |
| 20260509095932 | 73 | 176 | 3.0 | 9.0 | 0.00 | 0.09 | 0.01 | 60 | 1013.6 |
| 20260509091604 | 69 | 125 | 2.0 | 5.0 | 0.00 | 0.00 | 0.00 | 78 | 993.0 |
| 20260509075933 | 66 | 302 | 0.0 | 4.0 | 0.00 | 0.09 | 0.01 | 77 | 1014.0 |
| 20260509072312 | 68 | 11 | 2.0 | 6.0 | 0.00 | 0.00 | 0.00 | 79 | 992.5 |
| 20260509065917 | 60 | 184 | 1.0 | 3.0 | 0.00 | 0.09 | 0.01 | 87 | 1014.3 |
| 20260509061217 | 67 | 93 | 2.0 | 5.0 | 0.00 | 0.00 | 0.00 | 81 | 992.1 |
| 20260509055918 | 55 | 355 | 1.0 | 3.0 | 0.00 | 0.09 | 0.01 | 95 | 1014.6 |
| 20260509051100 | 61 | 328 | 0.0 | 0.0 | 0.00 | 0.00 | 0.00 | 87 | 991.9 |
| 20260509035931 | 53 | 311 | 0.0 | 0.0 | 0.01 | 0.09 | 0.01 | 95 | 1014.0 |
| 20260509031239 | 61 | 261 | 0.0 | 0.0 | 0.00 | 0.00 | 0.00 | 87 | 991.0 |
| 20260509025927 | 53 | 311 | 0.0 | 0.0 | 0.00 | 0.08 | 0.00 | 95 | 1013.5 |
| 20260509015922 | 54 | 311 | 0.0 | 0.0 | 0.00 | 0.08 | 0.00 | 95 | 1013.6 |
| 20260509011647 | 63 | 206 | 0.0 | 3.0 | 0.00 | 0.00 | 0.00 | 83 | 990.5 |
| 20260508235929 | 57 | 305 | 0.0 | 0.0 | 0.00 | 0.08 | 0.00 | 93 | 1013.2 |
| 20260508232255 | 64 | 243 | 0.0 | 0.0 | 0.00 | 0.00 | 0.00 | 82 | 990.6 |
| 20260508215944 | 60 | 305 | 0.0 | 2.0 | 0.00 | 0.08 | 0.00 | 91 | 1012.7 |
| 20260508211540 | 64 | 324 | 1.0 | 3.0 | 0.00 | 0.00 | 0.00 | 84 | 990.4 |
| 20260508201114 | 65 | 44 | 0.0 | 3.0 | 0.00 | 0.00 | 0.00 | 81 | 990.2 |
| 20260508195934 | 61 | 305 | 0.0 | 0.0 | 0.00 | 0.08 | 0.08 | 88 | 1012.4 |
| 20260508181557 | 66 | 355 | 0.0 | 1.0 | 0.00 | 0.00 | 0.00 | 78 | 988.8 |
| 20260508175927 | 63 | 305 | 0.0 | 0.0 | 0.00 | 0.08 | 0.08 | 83 | 1010.9 |
| 20260508171105 | 69 | 152 | 1.0 | 3.0 | 0.00 | 0.00 | 0.00 | 74 | 988.2 |
| 20260508165922 | 65 | 348 | 1.0 | 3.0 | 0.00 | 0.08 | 0.08 | 82 | 1010.6 |
| 20260508151201 | 73 | 55 | 2.0 | 5.0 | 0.00 | 0.00 | 0.00 | 62 | 987.8 |
| 20260508145934 | 68 | 38 | 0.0 | 2.0 | 0.00 | 0.08 | 0.08 | 74 | 1010.0 |
| 20260508141110 | 73 | 88 | 4.0 | 8.0 | 0.00 | 0.00 | 0.00 | 61 | 987.7 |
| 20260508125926 | 65 | 133 | 0.0 | 6.0 | 0.00 | 0.08 | 0.08 | 85 | 1010.4 |
| 20260508121610 | 73 | 75 | 3.0 | 8.0 | 0.00 | 0.00 | 0.00 | 61 | 987.7 |
| 20260508111104 | 72 | 68 | 3.0 | 8.0 | 0.00 | 0.00 | 0.00 | 66 | 987.6 |
| 20260508105927 | 70 | 213 | 6.0 | 14.0 | 0.00 | 0.00 | 0.00 | 65 | 1008.6 |